CW3508 Weather Reports


Display with metric or nautical units.
time (UTC)temp
F
wind
direction
speed
MPH
gust
MPH
rain 1hr
in
rain 24hr
in
rain mn
in
humidity
%
barometer
mb
20260509213522 73 155 0.0 1.0 0.00 0.03 0.03 83 1007.8
20260509213044 73 155 0.0 1.0 0.00 0.03 0.03 82 1007.8
20260509212524 73 155 0.0 1.0 0.00 0.03 0.03 82 1007.8
20260509212024 73 155 0.0 2.0 0.00 0.03 0.03 82 1007.8
20260509211517 73 155 1.0 3.0 0.00 0.03 0.03 80 1007.8
20260509211030 73 155 1.0 3.0 0.00 0.03 0.03 81 1007.8
20260509210529 73 154 1.0 2.0 0.00 0.03 0.03 80 1007.8
20260509210022 74 154 0.0 2.0 0.00 0.03 0.03 82 1007.8
20260509205531 74 154 0.0 3.0 0.00 0.03 0.03 81 1007.6
20260509205044 73 154 1.0 3.0 0.00 0.03 0.03 80 1007.6
20260509204546 74 154 0.0 2.0 0.00 0.03 0.03 80 1007.6
20260509204034 74 153 1.0 3.0 0.00 0.03 0.03 79 1007.9
20260509203536 74 153 1.0 3.0 0.00 0.03 0.03 79 1007.9
20260509203026 74 153 0.0 2.0 0.00 0.03 0.03 80 1007.9
20260509202541 74 153 0.0 2.0 0.00 0.03 0.03 79 1007.8
20260509202043 74 153 0.0 2.0 0.00 0.03 0.03 79 1007.8
20260509201529 74 153 0.0 1.0 0.00 0.03 0.03 81 1007.8
20260509201036 74 153 0.0 2.0 0.00 0.03 0.03 80 1007.9
20260509200530 74 157 1.0 2.0 0.00 0.03 0.03 81 1007.9
20260509200036 74 157 1.0 2.0 0.00 0.03 0.03 81 1007.9
20260509195535 73 157 1.0 2.0 0.00 0.03 0.03 81 1008.0
20260509195019 74 157 0.0 0.0 0.00 0.03 0.03 82 1008.0
20260509194524 74 157 0.0 2.0 0.00 0.03 0.03 83 1008.0
20260509194028 73 157 0.0 2.0 0.00 0.03 0.03 79 1008.2
20260509193542 73 157 0.0 0.0 0.00 0.03 0.03 81 1008.2
20260509193035 73 157 0.0 3.0 0.00 0.03 0.03 82 1008.2
20260509192519 73 157 0.0 3.0 0.00 0.03 0.03 80 1008.4
20260509192041 73 157 1.0 4.0 0.00 0.03 0.03 79 1008.4
20260509191526 73 157 3.0 4.0 0.00 0.03 0.03 79 1008.4
20260509191025 73 144 1.0 2.0 0.00 0.03 0.03 83 1008.2
20260509190525 73 144 0.0 1.0 0.00 0.03 0.03 84 1008.2
20260509190050 72 144 0.0 3.0 0.00 0.03 0.03 85 1008.2
20260509185533 72 144 1.0 3.0 0.00 0.03 0.03 83 1008.6
20260509185026 72 134 1.0 3.0 0.00 0.03 0.03 85 1008.6
20260509184515 72 132 1.0 2.0 0.00 0.03 0.03 87 1008.6
20260509184016 71 118 1.0 2.0 0.00 0.03 0.03 86 1008.7
20260509183521 71 115 0.0 1.0 0.00 0.03 0.03 86 1008.7
20260509183033 71 115 1.0 1.0 0.00 0.03 0.03 88 1008.7
20260509182520 70 115 0.0 1.0 0.00 0.03 0.03 88 1009.1
20260509182051 70 115 0.0 2.0 0.00 0.03 0.03 90 1009.1
20260509181536 70 123 1.0 2.0 0.00 0.03 0.03 91 1009.1
20260509181040 69 123 0.0 2.0 0.00 0.03 0.03 91 1009.3
20260509180525 69 123 0.0 3.0 0.00 0.03 0.03 92 1009.3
20260509180039 68 123 0.0 3.0 0.00 0.03 0.03 90 1009.3
20260509175545 68 84 2.0 3.0 0.00 0.03 0.03 91 1009.5
20260509174534 68 152 1.0 4.0 0.00 0.03 0.03 93 1009.5
20260509174018 67 156 2.0 4.0 0.00 0.03 0.03 93 1009.7
20260509173533 67 160 0.0 3.0 0.00 0.03 0.03 94 1009.7
20260509173028 67 160 1.0 3.0 0.00 0.03 0.03 93 1009.7
20260509172539 67 166 0.0 3.0 0.00 0.03 0.03 93 1009.7
20260509172019 66 166 0.0 3.0 0.00 0.03 0.03 93 1009.7
20260509171527 66 166 1.0 2.0 0.00 0.03 0.03 94 1009.7
20260509171022 66 166 0.0 3.0 0.00 0.03 0.03 95 1009.7
20260509170530 66 166 2.0 3.0 0.00 0.03 0.03 95 1009.7
20260509170036 66 154 1.0 5.0 0.00 0.03 0.03 96 1009.7
20260509165529 65 154 1.0 5.0 0.00 0.03 0.03 96 1009.7
20260509165019 65 155 1.0 2.0 0.00 0.03 0.03 97 1009.7
20260509164520 65 154 1.0 2.0 0.00 0.03 0.03 97 1009.7
20260509164036 65 154 1.0 3.0 0.00 0.03 0.03 98 1010.2
20260509163539 65 154 1.0 3.0 0.00 0.03 0.03 98 1010.2
20260509163026 64 154 0.0 4.0 0.00 0.03 0.03 97 1010.2
20260509162518 64 147 0.0 0.0 0.00 0.03 0.03 98 1009.8
20260509162049 64 147 0.0 0.0 0.00 0.03 0.03 97 1009.8
20260509161536 64 147 0.0 0.0 0.00 0.03 0.03 98 1009.8
20260509161037 64 147 0.0 2.0 0.00 0.03 0.03 98 1009.9
20260509160533 64 147 0.0 2.0 0.00 0.03 0.03 97 1009.9
20260509155542 64 147 0.0 0.0 0.00 0.03 0.03 98 1010.0
20260509155025 64 147 0.0 2.0 0.00 0.03 0.03 98 1010.0
20260509154534 63 147 0.0 3.0 0.00 0.03 0.03 98 1010.0
20260509154022 63 147 0.0 0.0 0.00 0.03 0.03 98 1010.0
20260509153524 63 147 0.0 0.0 0.00 0.03 0.03 98 1010.0
20260509153032 63 147 0.0 0.0 0.00 0.03 0.03 98 1010.0
20260509152540 63 147 0.0 0.0 0.00 0.03 0.03 97 1010.2
20260509152040 63 147 0.0 1.0 0.00 0.03 0.03 97 1010.2
20260509151527 63 147 0.0 1.0 0.00 0.03 0.03 97 1010.2
20260509151026 63 147 0.0 3.0 0.00 0.03 0.03 98 1009.8
20260509150525 63 158 0.0 0.0 0.00 0.03 0.03 98 1009.8
20260509150025 63 158 0.0 4.0 0.00 0.03 0.03 98 1009.8
20260509145542 63 164 0.0 2.0 0.00 0.03 0.03 98 1009.8
20260509145025 63 165 0.0 2.0 0.00 0.03 0.03 98 1009.8
20260509144515 63 180 0.0 0.0 0.00 0.03 0.03 97 1009.8
20260509144055 63 180 0.0 0.0 0.00 0.03 0.03 97 1009.8
20260509143533 62 180 0.0 0.0 0.00 0.03 0.03 97 1009.8
20260509143034 62 180 0.0 0.0 0.00 0.03 0.03 97 1009.8
20260509142517 62 180 0.0 0.0 0.00 0.03 0.03 97 1010.1
20260509142043 62 180 0.0 1.0 0.00 0.03 0.03 97 1010.1
20260509141527 62 180 0.0 2.0 0.00 0.03 0.03 97 1010.1
20260509140516 62 180 0.0 2.0 0.00 0.03 0.03 97 1010.0
20260509140053 62 180 0.0 0.0 0.00 0.03 0.03 97 1010.0
20260509135520 62 180 0.0 2.0 0.00 0.03 0.03 97 1010.2
20260509135036 62 180 0.0 5.0 0.00 0.03 0.03 97 1010.2
20260509134525 62 186 2.0 5.0 0.00 0.03 0.03 97 1010.2
20260509134032 62 136 0.0 4.0 0.00 0.03 0.03 97 1009.8
20260509133025 62 167 1.0 6.0 0.00 0.03 0.03 97 1009.8
20260509132603 62 152 0.0 6.0 0.00 0.03 0.03 97 1009.5
20260509132041 62 148 0.0 2.0 0.00 0.03 0.03 97 1009.5
20260509131530 62 148 0.0 2.0 0.00 0.03 0.03 97 1009.5
20260509131034 62 148 0.0 2.0 0.00 0.03 0.03 97 1009.2
20260509130520 62 148 0.0 0.0 0.00 0.03 0.03 97 1009.2
20260509130017 62 148 0.0 0.0 0.00 0.03 0.03 97 1009.2
20260509125043 62 148 0.0 0.0 0.00 0.03 0.03 97 1009.0
20260509124532 62 148 0.0 0.0 0.00 0.03 0.03 97 1009.0
20260509124021 62 148 0.0 0.0 0.00 0.03 0.03 97 1009.2
20260509123522 62 148 0.0 0.0 0.00 0.03 0.03 97 1009.2
20260509122542 62 148 0.0 1.0 0.00 0.03 0.03 97 1009.0
20260509122028 62 148 0.0 1.0 0.00 0.03 0.03 97 1009.0
20260509121526 61 148 0.0 1.0 0.00 0.03 0.03 97 1009.0
20260509121022 61 148 0.0 1.0 0.00 0.03 0.03 97 1008.8
20260509120521 61 148 0.0 0.0 0.00 0.03 0.03 97 1008.8
20260509120026 61 148 0.0 0.0 0.00 0.03 0.03 97 1008.8
20260509115544 61 148 0.0 0.0 0.00 0.03 0.03 97 1008.7
20260509115023 61 148 0.0 0.0 0.00 0.03 0.03 97 1008.7
20260509114534 61 148 0.0 0.0 0.00 0.03 0.03 97 1008.7
20260509114020 61 148 0.0 0.0 0.00 0.03 0.03 97 1009.1
20260509113537 61 148 0.0 0.0 0.00 0.03 0.03 97 1009.1
20260509113036 61 148 0.0 0.0 0.00 0.03 0.03 96 1009.1
20260509112519 61 148 0.0 3.0 0.00 0.03 0.03 96 1008.9
20260509112038 61 148 0.0 3.0 0.00 0.03 0.03 96 1008.9
20260509111533 61 95 0.0 0.0 0.00 0.03 0.03 96 1008.9
20260509111032 61 95 0.0 0.0 0.00 0.03 0.03 96 1008.7
20260509110532 61 95 0.0 0.0 0.00 0.03 0.03 96 1008.7
20260509110022 61 95 0.0 6.0 0.00 0.03 0.03 96 1008.7
20260509105526 61 167 0.0 6.0 0.01 0.03 0.03 96 1008.7
20260509105032 61 159 0.0 0.0 0.01 0.03 0.03 96 1008.7
20260509104519 61 160 0.0 0.0 0.01 0.03 0.03 96 1008.7
20260509104021 61 160 0.0 0.0 0.01 0.03 0.03 96 1008.4
20260509103521 61 160 0.0 0.0 0.01 0.03 0.03 96 1008.4
20260509102522 61 160 0.0 0.0 0.01 0.03 0.03 96 1008.6
20260509102032 61 159 0.0 0.0 0.01 0.03 0.03 96 1008.6
20260509101537 61 160 0.0 0.0 0.01 0.03 0.03 96 1008.6
20260509101053 61 160 0.0 0.0 0.01 0.03 0.03 96 1008.1
20260509100518 61 159 0.0 0.0 0.01 0.03 0.03 96 1008.1
20260509100100 61 159 0.0 0.0 0.01 0.03 0.03 96 1008.1
20260509095528 61 159 0.0 0.0 0.00 0.02 0.02 96 1007.6
20260509095019 61 160 0.0 0.0 0.00 0.02 0.02 96 1007.6
20260509094554 61 159 0.0 0.0 0.00 0.02 0.02 96 1007.6
20260509094025 61 159 0.0 0.0 0.00 0.02 0.02 96 1007.4
20260509093529 61 159 0.0 1.0 0.01 0.02 0.02 96 1007.4
20260509093036 61 159 0.0 1.0 0.01 0.02 0.02 95 1007.4
20260509092536 61 159 0.0 1.0 0.02 0.02 0.02 95 1007.1
20260509092036 61 159 0.0 1.0 0.02 0.02 0.02 95 1007.1
20260509091521 61 159 0.0 1.0 0.02 0.02 0.02 95 1007.1
20260509091034 61 160 0.0 1.0 0.02 0.02 0.02 95 1007.4
20260509090528 61 160 0.0 3.0 0.02 0.02 0.02 95 1007.4
20260509090030 61 159 1.0 3.0 0.02 0.02 0.02 95 1007.4
20260509085530 61 187 0.0 1.0 0.02 0.02 0.02 95 1007.4
20260509084537 60 187 0.0 1.0 0.02 0.02 0.02 95 1007.4
20260509084037 60 189 0.0 2.0 0.02 0.02 0.02 95 1008.4
20260509083539 60 189 1.0 2.0 0.01 0.01 0.01 95 1008.4
20260509083029 60 162 0.0 1.0 0.01 0.01 0.01 95 1008.4
20260509082530 60 162 0.0 2.0 0.00 0.00 0.00 95 1008.7
20260509082029 60 162 0.0 2.0 0.00 0.00 0.00 95 1008.7
20260509081542 60 161 0.0 2.0 0.00 0.00 0.00 95 1008.7
20260509081053 60 163 0.0 2.0 0.00 0.00 0.00 94 1009.2
20260509080532 60 180 0.0 0.0 0.00 0.00 0.00 94 1009.2
20260509080020 60 180 0.0 2.0 0.00 0.00 0.00 94 1009.2
20260509075535 59 180 1.0 2.0 0.00 0.00 0.00 94 1009.2
20260509075039 59 184 0.0 0.0 0.00 0.00 0.00 94 1009.2
20260509074539 59 184 0.0 0.0 0.00 0.00 0.00 94 1009.2
20260509074029 59 184 0.0 0.0 0.00 0.00 0.00 94 1008.9
20260509073531 59 184 0.0 0.0 0.00 0.00 0.00 94 1008.9
20260509073026 59 184 0.0 0.0 0.00 0.00 0.00 94 1008.9
20260509072042 59 184 0.0 0.0 0.00 0.00 0.00 94 1008.6
20260509071553 59 184 0.0 0.0 0.00 0.00 0.00 94 1008.6
20260509071018 59 184 0.0 0.0 0.00 0.00 0.00 94 1008.2
20260509070535 59 184 0.0 2.0 0.00 0.00 0.00 94 1008.2
20260509070025 59 184 1.0 2.0 0.00 0.00 0.00 94 1008.2
20260509065526 59 184 0.0 1.0 0.00 0.00 0.00 94 1008.7
20260509065028 59 184 0.0 0.0 0.00 0.00 0.00 94 1008.7
20260509064543 59 184 0.0 0.0 0.00 0.00 0.00 94 1008.7
20260509064023 58 184 0.0 0.0 0.00 0.00 0.00 94 1008.6
20260509063525 58 184 0.0 0.0 0.00 0.00 0.00 94 1008.6
20260509063042 58 184 0.0 0.0 0.00 0.00 0.00 94 1008.6
20260509062543 58 184 0.0 0.0 0.00 0.00 0.00 94 1008.6
20260509062038 58 184 0.0 0.0 0.00 0.00 0.00 94 1008.6
20260509061530 58 184 0.0 0.0 0.00 0.00 0.00 94 1008.6
20260509061023 58 184 0.0 0.0 0.00 0.00 0.00 94 1008.6
20260509060525 58 184 0.0 0.0 0.00 0.00 0.00 94 1008.6
20260509060033 58 184 0.0 0.0 0.00 0.00 0.00 94 1008.6
20260509055546 58 184 0.0 0.0 0.00 0.00 0.00 93 1009.0
20260509055033 58 184 0.0 0.0 0.00 0.00 0.00 93 1009.0
20260509054520 58 184 0.0 0.0 0.00 0.00 0.00 93 1009.0
20260509054036 58 184 0.0 0.0 0.00 0.00 0.00 93 1009.1
20260509053523 58 184 0.0 0.0 0.00 0.00 0.00 93 1009.1
20260509053031 58 184 0.0 0.0 0.00 0.00 0.00 93 1009.1
20260509052519 58 184 0.0 0.0 0.00 0.00 0.00 93 1009.2
20260509052055 58 184 0.0 0.0 0.00 0.00 0.00 93 1009.2
20260509051534 58 184 0.0 0.0 0.00 0.00 0.00 93 1009.2
20260509051035 58 184 0.0 0.0 0.00 0.00 0.00 93 1009.4
20260509050521 58 184 0.0 0.0 0.00 0.00 0.00 92 1009.4
20260509050030 58 184 0.0 0.0 0.00 0.00 0.00 92 1009.4
20260509045527 58 184 0.0 0.0 0.00 0.00 0.00 92 1009.3
20260509044605 58 184 0.0 0.0 0.00 0.00 0.00 92 1009.3
20260509044048 58 184 0.0 0.0 0.00 0.00 0.00 92 1009.3
20260509043534 58 184 0.0 0.0 0.00 0.00 0.00 92 1009.3
20260509043048 58 184 0.0 0.0 0.00 0.00 0.00 92 1009.3
20260509042528 58 184 0.0 1.0 0.00 0.00 0.00 92 1009.3
20260509042017 59 184 0.0 1.0 0.00 0.00 0.00 91 1009.3
20260509041534 59 184 0.0 0.0 0.00 0.00 0.00 91 1009.3
20260509041018 59 184 0.0 0.0 0.00 0.00 0.00 91 1009.2
20260509040534 59 184 0.0 0.0 0.00 0.00 0.00 91 1009.2
20260509035530 59 184 0.0 0.0 0.00 0.00 0.00 91 1009.5
20260509035048 59 184 0.0 0.0 0.00 0.00 0.00 91 1009.5
20260509034525 59 184 0.0 0.0 0.00 0.00 0.00 91 1009.5
20260509034022 59 184 0.0 0.0 0.00 0.00 0.00 91 1009.7
20260509033541 59 184 0.0 0.0 0.00 0.00 0.00 91 1009.7
20260509033019 59 184 0.0 1.0 0.00 0.00 0.00 91 1009.7
20260509032518 59 184 0.0 1.0 0.00 0.00 0.00 91 1009.2
20260509032048 59 184 0.0 1.0 0.00 0.00 0.00 90 1009.2
20260509031516 59 184 0.0 0.0 0.00 0.00 0.00 90 1009.2
20260509030536 60 184 0.0 1.0 0.00 0.00 0.00 90 1009.0
20260509030022 60 184 0.0 0.0 0.00 0.00 0.00 90 1009.0
20260509025556 60 184 0.0 0.0 0.00 0.00 0.00 90 1009.2
20260509025021 60 184 0.0 0.0 0.00 0.00 0.00 90 1009.2
20260509024521 60 184 0.0 0.0 0.00 0.00 0.00 89 1009.2
20260509024025 60 184 0.0 0.0 0.00 0.00 0.00 89 1009.5
20260509023542 60 184 0.0 0.0 0.00 0.00 0.00 89 1009.5
20260509023033 60 184 0.0 0.0 0.00 0.00 0.00 89 1009.5
20260509022536 60 184 0.0 0.0 0.00 0.00 0.00 89 1009.6
20260509022021 60 184 0.0 0.0 0.00 0.00 0.00 89 1009.6
20260509021519 60 184 0.0 0.0 0.00 0.00 0.00 89 1009.6
20260509021025 60 184 0.0 0.0 0.00 0.00 0.00 89 1009.7
20260509020532 60 184 0.0 0.0 0.00 0.00 0.00 89 1009.7
20260509020048 60 184 0.0 0.0 0.00 0.00 0.00 89 1009.7
20260509015530 60 184 0.0 0.0 0.00 0.00 0.00 89 1009.2
20260509015036 60 184 0.0 0.0 0.00 0.00 0.00 89 1009.2
20260509014542 60 184 0.0 0.0 0.00 0.00 0.00 88 1009.2
20260509014031 60 184 0.0 0.0 0.00 0.00 0.00 88 1009.2
20260509013530 61 184 0.0 0.0 0.00 0.00 0.00 88 1009.2
20260509013019 61 184 0.0 0.0 0.00 0.00 0.00 87 1009.2
20260509012538 61 184 0.0 0.0 0.00 0.00 0.00 88 1009.2
20260509012040 61 184 0.0 0.0 0.00 0.00 0.00 88 1009.2
20260509011545 61 184 0.0 0.0 0.00 0.00 0.00 88 1009.2
20260509010546 61 184 0.0 0.0 0.00 0.00 0.00 87 1009.4
20260509010026 61 184 0.0 0.0 0.00 0.00 0.00 87 1009.4
20260509005556 61 184 0.0 1.0 0.00 0.00 0.00 87 1009.5
20260509005047 61 184 0.0 1.0 0.00 0.00 0.00 87 1009.5
20260509004530 62 184 0.0 0.0 0.00 0.00 0.00 86 1009.5
20260509004031 62 184 0.0 0.0 0.00 0.00 0.00 87 1009.7
20260509003040 62 184 0.0 1.0 0.00 0.00 0.00 86 1009.7
20260509002526 62 184 0.0 0.0 0.00 0.00 0.00 86 1009.7
20260509002018 62 184 0.0 0.0 0.00 0.00 0.00 86 1009.7
20260509001537 62 184 0.0 0.0 0.00 0.00 0.00 86 1009.7
20260509001025 62 184 0.0 0.0 0.00 0.00 0.00 86 1009.7
20260509000524 62 184 0.0 0.0 0.00 0.00 0.00 86 1009.7
20260509000042 62 184 0.0 0.0 0.00 0.00 0.00 86 1009.7
20260508235546 63 184 0.0 0.0 0.00 0.00 0.00 86 1010.1
20260508235027 63 184 0.0 0.0 0.00 0.00 0.00 85 1010.1
20260508234519 63 184 0.0 0.0 0.00 0.00 0.00 86 1010.1
20260508234026 63 184 0.0 0.0 0.00 0.00 0.00 86 1010.3
20260508233555 63 184 0.0 0.0 0.00 0.00 0.00 86 1010.3
20260508233105 63 184 0.0 0.0 0.00 0.00 0.00 86 1010.3
20260508232531 63 184 0.0 0.0 0.00 0.00 0.00 86 1010.7
20260508232025 63 184 0.0 0.0 0.00 0.00 0.00 86 1010.7
20260508231530 64 184 0.0 0.0 0.00 0.00 0.00 85 1010.7
20260508231020 64 184 0.0 0.0 0.00 0.00 0.00 85 1010.7
20260508230521 64 184 0.0 0.0 0.00 0.00 0.00 86 1010.7
20260508230040 64 184 0.0 1.0 0.00 0.00 0.00 85 1010.7
20260508225542 64 184 0.0 1.0 0.00 0.00 0.00 85 1010.5
20260508225032 64 184 0.0 0.0 0.00 0.00 0.00 85 1010.5
20260508224534 64 184 0.0 1.0 0.00 0.00 0.00 84 1010.5
20260508224033 64 184 0.0 1.0 0.00 0.00 0.00 84 1010.8
20260508223553 64 184 0.0 0.0 0.00 0.00 0.00 84 1010.8
20260508223038 64 184 0.0 0.0 0.00 0.00 0.00 84 1010.8
20260508222542 64 184 0.0 0.0 0.00 0.00 0.00 84 1010.8
20260508222035 65 184 0.0 1.0 0.00 0.00 0.00 83 1010.8
20260508221525 65 184 0.0 1.0 0.00 0.00 0.00 83 1010.8
20260508221017 65 184 0.0 2.0 0.00 0.00 0.00 82 1010.6
20260508220527 65 184 0.0 2.0 0.00 0.00 0.00 81 1010.6
20260508220040 65 185 0.0 1.0 0.00 0.00 0.00 82 1010.6
20260508215518 65 185 0.0 1.0 0.00 0.00 0.00 82 1010.7
20260508215101 65 185 0.0 2.0 0.00 0.00 0.00 82 1010.7
20260508214532 65 177 0.0 2.0 0.00 0.00 0.00 82 1010.7
20260508214022 65 132 0.0 1.0 0.00 0.00 0.00 82 1010.8